User: anonymous   Login
Location: Unspecified
(0.0000°N, 0.0000°E)
Time: 05:26:33
(UTC+00:00)
Language:

USA 229 - Orbit

View from above orbital plane
View from above orbital plane
View from above satellite
View from above satellite

Ground track
Ground track

The orbit data is extracted from the following two-line orbital elements,

1 37386U 11014A   16268.02887359 0.00000000  00000-0  00000-0 0    02
2 37386  63.4285 333.4745 0039000  12.1060 347.8940 13.40712502    08
Epoch (UTC): 24 September 2016 00:41:34
Eccentricity: 0.0039000
inclination: 63.4285°
perigee height: 1077 km
apogee height: 1136 km
right ascension of ascending node: 333.4745°
argument of perigee: 12.1060°
revolutions per day: 13.40712502
mean anomaly at epoch: 347.8940°
orbit number at epoch: 0

The dashed part of the orbit path shows where the satellite is in the earth's shadow,  

DLR